Wind_Speed
20 19 19 18 17 16 16 16 14 12 11 9 7 7 6 5 4 4 4 4 4 3 3 3 4 3 3 2 2 2 2 2 3 4 4 4 5 6 7 8 9 10 11 13
20 19 19 19 18 17 16 16 14 13 11 9 7 6 6 5 5 3 3 3 4 3 4 3 3 2 2 2 1 1 2 2 3 4 4 5 6 7 8 9 10 11 12 13
18 19 19 18 18 18 15 14 13 12 10 9 8 7 7 5 4 3 3 3 3 3 3 3 3 3 3 3 2 1 1 2 3 4 4 5 6 7 8 9 9 10 11 12
18 18 18 17 17 16 14 12 11 11 10 10 9 8 7 5 4 3 3 3 3 3 3 3 3 3 3 3 2 2 2 2 3 4 5 5 6 7 8 9 10 10 11 12
16 17 17 16 16 15 14 13 11 11 10 10 9 7 7 5 3 3 2 2 2 2 3 3 3 3 3 3 2 2 2 3 3 4 5 5 6 7 8 8 9 10 11 12
14 14 14 14 14 15 14 13 12 11 10 10 9 7 6 5 4 2 1 2 2 2 3 2 2 2 2 2 2 2 3 3 3 4 4 5 6 8 9 9 10 11 12 13
14 14 14 14 14 14 14 14 13 12 12 10 9 8 6 5 3 2 1 1 2 2 2 2 2 2 2 2 3 3 2 3 3 4 5 6 7 8 9 10 11 12 12 13
13 14 13 14 14 13 13 14 13 13 12 11 10 8 6 4 2 1 1 1 2 2 2 2 2 2 2 2 3 3 3 3 4 5 6 7 8 9 9 10 11 12 13 14
12 12 13 13 14 13 13 13 13 12 11 10 9 7 5 4 2 1 1 2 2 3 3 3 3 3 2 3 3 3 3 4 4 5 7 8 8 9 10 11 12 13 14 15
11 12 13 13 13 12 12 12 13 12 11 9 8 6 4 3 2 2 2 2 3 4 4 4 4 4 3 4 4 4 4 5 5 6 7 8 9 10 12 12 13 14 15 16
11 12 12 12 11 11 11 11 11 11 10 8 6 5 4 3 2 2 3 3 4 4 5 5 4 4 4 5 5 5 6 6 7 8 8 10 11 12 13 14 15 16 17 18
11 12 11 12 12 11 11 11 10 10 9 8 6 5 5 4 4 4 4 4 4 5 5 5 5 5 6 6 6 7 8 8 8 9 10 11 13 14 15 16 17 17 18 19
10 10 11 12 11 11 11 11 11 11 10 9 7 5 5 5 5 5 6 6 5 6 6 6 6 7 7 7 7 8 9 10 10 11 12 14 15 16 16 17 18 19 21 22
9 9 10 10 10 10 10 10 11 11 10 9 8 7 6 7 7 7 6 6 6 7 7 8 8 8 8 8 9 9 10 12 12 13 14 16 17 18 19 19 21 22 23 24
9 9 9 10 10 11 11 11 11 11 10 9 8 8 7 7 7 7 7 6 7 8 9 9 9 10 10 10 11 11 12 13 14 15 17 18 19 20 21 22 23 25 26 27
10 11 10 9 10 11 11 10 11 11 10 9 9 8 7 7 7 7 7 7 8 9 9 10 10 11 12 12 13 13 15 16 17 18 19 20 21 22 23 25 26 28 28 29
12 12 12 11 12 11 10 9 10 11 10 10 9 9 9 8 7 7 8 8 9 10 11 11 12 13 13 14 15 16 17 18 19 20 21 22 24 25 26 28 29 30 31 32
12 13 13 13 13 12 9 10 11 11 11 11 10 10 9 8 9 9 9 10 10 11 12 12 13 14 15 16 17 18 19 20 21 22 23 25 26 28 29 31 32 33 34 35
15 15 15 15 15 13 11 11 12 12 11 11 11 10 10 11 11 10 11 12 12 13 13 14 15 16 17 19 19 20 21 22 24 25 26 28 29 31 32 33 34 35 36 37
17 17 17 16 16 14 12 13 13 13 12 12 12 12 12 12 12 12 14 14 14 15 16 16 17 18 19 21 22 23 24 25 26 28 29 30 32 33 34 35 36 38 39 40
18 18 18 17 17 15 14 14 14 14 12 13 14 14 14 14 15 16 16 17 17 17 18 19 20 22 23 24 25 26 28 28 29 30 32 33 35 36 36 38 39 40 41 42
19 19 19 19 18 15 15 16 15 16 16 16 16 16 17 17 18 18 18 19 20 21 22 22 23 24 25 27 28 29 30 31 32 34 35 36 37 38 39 40 42 43 43 43
22 21 21 21 19 19 19 18 19 19 19 19 18 19 19 20 20 21 21 22 23 24 25 26 26 27 28 29 31 31 32 33 34 36 37 38 39 41 42 43 44 44 44 45
24 24 23 23 22 21 21 21 21 22 22 22 22 22 23 23 23 24 24 25 26 27 27 28 29 30 31 32 33 34 35 36 37 38 39 40 41 43 44 44 45 45 46 46
27 27 27 27 25 25 25 24 25 25 25 25 25 26 26 27 27 27 28 28 29 30 30 31 32 33 34 35 35 36 37 38 39 40 41 42 44 45 45 46 46 47 48 48
28 28 29 29 28 29 28 28 28 28 28 28 29 29 29 30 30 30 31 31 32 32 33 34 35 35 36 37 38 38 39 40 41 42 44 45 46 47 47 48 48 49 49 49
Wind_Direction
170 174 176 178 182 183 184 182 181 180 182 180 181 187 189 190 181 184 196 208 216 218 233 246 248 253 245 251 272 284 296 313 317 328 331 341 342 341 342 344 346 348 350 352
166 168 174 179 182 182 183 183 179 179 179 180 189 185 190 192 186 185 186 194 203 212 226 236 241 238 226 233 240 272 301 314 319 324 332 332 341 340 340 340 340 344 346 349
163 169 175 178 183 184 184 182 177 180 178 181 190 184 184 186 182 183 188 188 198 210 221 221 221 219 216 218 222 248 300 318 320 322 325 330 335 343 346 345 345 347 348 349
167 170 177 182 184 184 175 173 172 177 187 187 187 178 173 168 174 188 196 199 205 217 228 229 223 219 214 216 227 248 281 312 325 327 323 331 337 344 347 347 348 348 349 350
167 170 175 183 184 183 173 171 172 173 181 188 183 178 165 159 155 169 192 203 213 227 226 225 220 217 214 223 237 259 285 310 322 328 330 333 336 341 344 341 342 342 344 347
167 171 177 179 178 177 174 174 175 176 182 185 182 175 152 144 146 150 170 197 209 220 224 224 225 217 213 228 245 261 283 303 315 326 335 338 337 337 339 340 339 340 340 342
164 167 171 173 175 176 179 180 180 177 175 173 176 167 150 137 139 144 170 204 211 217 222 217 219 221 215 223 244 254 275 299 316 321 326 329 331 331 333 337 338 339 339 339
157 159 164 169 173 174 181 185 187 181 176 176 177 168 163 149 145 160 188 214 234 235 233 232 240 249 237 232 244 253 271 288 310 316 320 322 326 329 331 333 334 336 337 338
155 155 161 165 172 177 178 182 183 182 183 187 188 175 162 161 159 185 208 234 247 242 235 236 249 256 258 252 255 265 279 291 306 313 319 322 325 328 326 327 329 330 331 332
152 153 159 163 174 180 180 182 189 191 195 199 202 192 177 187 199 222 232 236 244 248 249 252 255 254 263 266 270 278 287 298 307 314 316 320 321 324 324 323 323 324 326 327
158 160 163 166 172 177 178 184 191 198 204 207 212 204 202 211 226 240 244 244 247 250 255 260 264 265 267 271 279 285 289 297 303 307 312 315 315 319 321 322 323 323 323 323
166 167 170 173 179 184 188 197 205 213 218 225 237 227 219 233 247 259 261 259 257 255 259 266 273 276 272 273 280 286 289 295 298 302 307 310 312 315 316 318 320 321 322 322
179 181 187 189 193 198 200 209 217 225 230 233 240 236 235 245 256 264 268 267 264 261 265 271 275 278 276 274 281 284 289 294 297 302 306 308 310 312 313 315 317 317 319 319
193 192 197 202 208 211 212 216 222 230 238 241 245 250 251 257 263 266 268 268 266 265 270 275 274 275 276 275 280 285 291 295 298 302 305 307 308 309 310 313 315 315 316 316
206 206 206 207 213 219 223 228 232 238 244 251 255 258 260 258 262 267 270 272 271 272 276 278 274 273 276 278 281 285 291 295 298 300 303 306 308 308 310 311 312 312 312 313
219 222 221 223 225 227 229 236 241 245 251 257 257 261 260 261 265 271 274 276 279 280 282 281 277 274 277 279 283 288 291 294 297 300 303 304 306 307 308 310 311 311 311 311
227 233 234 234 237 239 233 239 245 249 254 258 255 255 258 262 270 276 277 277 280 283 285 285 281 278 279 281 284 289 292 293 296 298 301 303 305 306 307 309 310 310 311 311
235 238 241 242 242 242 242 241 246 252 255 256 255 256 261 267 272 279 283 282 283 284 285 285 285 283 282 283 285 289 293 295 296 298 301 303 305 306 307 308 309 310 311 310
239 242 245 248 248 246 243 246 249 252 252 255 257 258 263 270 275 280 283 282 285 287 287 286 287 287 286 285 287 289 292 294 297 299 301 303 304 306 307 308 308 309 309 309
242 245 249 251 252 249 243 246 249 252 253 256 259 262 267 271 276 280 283 286 286 287 288 287 289 290 290 291 291 291 292 294 297 299 300 302 303 304 305 306 307 308 308 308
244 247 250 252 254 253 250 250 251 254 257 260 262 265 270 274 276 278 283 287 287 288 290 290 291 292 293 293 293 293 294 295 297 299 301 302 303 304 305 306 306 307 307 307
245 248 250 253 255 255 255 255 256 258 261 264 265 267 270 273 277 280 282 286 289 289 290 291 291 292 294 294 294 295 295 296 297 299 301 302 303 304 305 306 306 307 307 306
247 249 251 254 257 257 257 258 259 261 263 265 267 270 272 275 278 280 283 286 288 290 291 291 291 292 294 296 296 296 296 297 298 299 300 302 303 304 305 306 306 306 306 306
252 253 255 257 257 258 259 260 262 264 265 267 269 270 272 275 277 281 284 286 288 290 292 292 292 293 294 296 297 296 296 297 299 300 300 302 303 304 305 306 306 306 306 305
254 256 258 259 259 259 260 262 263 265 266 268 270 271 273 275 278 280 283 285 287 289 291 292 293 292 293 294 296 296 296 297 298 299 300 302 303 304 304 305 305 305 305 305
255 257 258 259 259 260 261 262 264 266 267 268 270 272 274 276 278 280 282 283 285 287 289 291 293 293 293 294 295 296 296 297 297 299 300 301 302 303 303 303 304 304 304 304
Height
5825 5830 5834 5838 5841 5844 5847 5850 5853 5855 5856 5859 5860 5862 5863 5864 5865 5865 5866 5867 5867 5868 5868 5868 5868 5868 5867 5867 5867 5867 5866 5865 5864 5863 5862 5861 5860 5859 5857 5856 5854 5852 5850 5847
5827 5831 5834 5837 5840 5843 5846 5849 5851 5854 5856 5858 5859 5861 5862 5862 5863 5864 5865 5865 5866 5866 5866 5866 5866 5866 5866 5866 5866 5866 5865 5864 5863 5862 5861 5860 5859 5858 5856 5854 5853 5851 5849 5846
5828 5832 5834 5837 5841 5843 5846 5848 5851 5853 5855 5857 5858 5860 5860 5862 5862 5863 5864 5864 5864 5865 5865 5865 5865 5865 5865 5865 5865 5864 5864 5863 5862 5861 5860 5859 5858 5857 5855 5853 5852 5850 5848 5845
5829 5832 5835 5838 5841 5843 5846 5848 5850 5852 5854 5856 5858 5859 5860 5861 5862 5862 5862 5863 5863 5863 5863 5863 5863 5863 5863 5863 5863 5863 5862 5862 5861 5860 5859 5859 5857 5856 5854 5852 5851 5849 5847 5844
5831 5833 5835 5838 5841 5843 5845 5847 5849 5851 5853 5855 5857 5858 5860 5860 5860 5861 5861 5861 5861 5861 5861 5861 5861 5861 5861 5861 5861 5861 5861 5860 5860 5859 5858 5857 5856 5854 5853 5851 5849 5848 5845 5843
5832 5834 5836 5839 5841 5843 5845 5847 5849 5851 5853 5855 5856 5858 5859 5859 5859 5859 5859 5860 5860 5860 5860 5860 5860 5859 5859 5859 5859 5859 5859 5859 5858 5858 5857 5856 5855 5853 5851 5850 5848 5846 5844 5842
5833 5835 5837 5839 5841 5843 5845 5848 5849 5850 5852 5854 5855 5856 5859 5858 5858 5858 5858 5858 5858 5858 5858 5858 5858 5858 5858 5858 5858 5858 5858 5857 5857 5856 5855 5854 5853 5852 5850 5848 5847 5845 5843 5840
5834 5836 5838 5840 5842 5844 5845 5848 5850 5851 5852 5853 5854 5855 5858 5857 5857 5857 5857 5857 5857 5857 5857 5857 5857 5856 5856 5856 5856 5856 5856 5856 5855 5855 5854 5853 5851 5850 5849 5847 5845 5843 5841 5839
5835 5837 5838 5840 5842 5844 5845 5847 5849 5851 5852 5853 5853 5855 5856 5856 5856 5856 5856 5856 5856 5856 5855 5856 5855 5855 5855 5855 5855 5855 5854 5854 5853 5853 5852 5851 5850 5848 5847 5845 5843 5841 5839 5836
5836 5838 5839 5841 5843 5845 5846 5847 5849 5850 5851 5852 5853 5853 5855 5855 5855 5855 5854 5854 5854 5854 5854 5854 5854 5853 5853 5853 5853 5853 5853 5852 5852 5851 5850 5849 5848 5846 5845 5843 5841 5839 5836 5834
5838 5839 5841 5842 5843 5845 5847 5848 5848 5850 5851 5851 5852 5855 5854 5853 5853 5853 5853 5853 5853 5852 5852 5852 5851 5851 5851 5851 5851 5851 5851 5850 5850 5849 5848 5847 5845 5844 5842 5840 5838 5836 5833 5831
5838 5840 5841 5842 5843 5844 5846 5847 5848 5850 5850 5850 5851 5855 5852 5852 5852 5851 5851 5851 5850 5850 5850 5850 5849 5849 5849 5849 5849 5849 5848 5848 5847 5846 5845 5844 5842 5841 5839 5837 5835 5832 5830 5827
5839 5841 5841 5842 5845 5845 5845 5846 5847 5848 5849 5849 5850 5854 5851 5850 5850 5850 5849 5849 5848 5848 5848 5847 5847 5847 5846 5847 5847 5846 5846 5845 5845 5843 5842 5841 5839 5837 5835 5833 5831 5828 5826 5823
5839 5840 5842 5843 5843 5843 5844 5844 5845 5846 5847 5847 5848 5849 5849 5849 5848 5848 5847 5846 5846 5845 5845 5844 5844 5844 5844 5844 5844 5843 5843 5842 5841 5840 5839 5837 5835 5833 5831 5829 5826 5824 5821 5818
5838 5839 5840 5841 5841 5842 5843 5843 5844 5844 5845 5846 5847 5846 5847 5846 5846 5846 5845 5844 5843 5843 5842 5841 5841 5841 5841 5841 5841 5840 5840 5839 5837 5836 5835 5833 5831 5829 5826 5824 5821 5818 5815 5812
5836 5837 5838 5839 5840 5840 5841 5842 5842 5843 5843 5843 5844 5844 5844 5844 5844 5843 5842 5841 5841 5840 5839 5838 5838 5838 5838 5838 5837 5837 5836 5835 5834 5832 5830 5828 5826 5823 5821 5818 5815 5811 5808 5805
5834 5836 5837 5837 5837 5838 5839 5840 5840 5840 5841 5841 5841 5843 5842 5842 5841 5840 5840 5839 5838 5837 5836 5835 5835 5834 5834 5834 5833 5833 5832 5830 5829 5827 5825 5823 5820 5817 5815 5811 5808 5804 5801 5797
5832 5833 5833 5834 5835 5835 5839 5837 5837 5837 5838 5838 5839 5839 5839 5839 5839 5838 5837 5836 5835 5834 5833 5832 5831 5831 5830 5830 5829 5828 5827 5825 5823 5821 5819 5816 5814 5811 5807 5804 5800 5796 5792 5788
5828 5829 5830 5831 5831 5832 5835 5835 5834 5834 5835 5835 5835 5836 5836 5836 5835 5835 5834 5833 5832 5831 5830 5829 5828 5827 5826 5825 5824 5823 5821 5819 5817 5815 5812 5809 5806 5803 5800 5796 5792 5788 5784 5779
5824 5825 5827 5827 5827 5829 5832 5831 5830 5832 5832 5832 5832 5832 5832 5832 5832 5832 5830 5829 5828 5827 5826 5825 5824 5823 5821 5820 5818 5817 5815 5813 5810 5808 5805 5802 5798 5795 5791 5787 5783 5778 5774 5769
5820 5821 5822 5822 5822 5824 5827 5826 5827 5828 5829 5828 5828 5828 5828 5828 5828 5828 5826 5825 5824 5822 5821 5820 5819 5817 5816 5814 5812 5810 5808 5805 5803 5800 5797 5793 5789 5786 5782 5778 5773 5768 5763 5758
5815 5816 5817 5817 5818 5822 5821 5822 5823 5823 5823 5823 5823 5823 5823 5823 5822 5822 5821 5820 5818 5817 5816 5814 5813 5811 5809 5807 5805 5802 5800 5797 5794 5791 5788 5784 5780 5776 5772 5767 5762 5757 5752 5746
5809 5811 5812 5813 5815 5815 5815 5816 5816 5817 5817 5817 5817 5817 5817 5817 5816 5816 5815 5814 5812 5811 5809 5807 5805 5803 5801 5799 5797 5794 5791 5788 5785 5782 5778 5774 5770 5766 5761 5756 5751 5745 5740 5734
5803 5804 5805 5806 5808 5808 5809 5809 5810 5810 5810 5811 5811 5811 5811 5810 5810 5809 5808 5807 5805 5803 5801 5799 5797 5795 5793 5790 5788 5785 5782 5779 5776 5772 5768 5764 5760 5755 5750 5745 5739 5733 5728 5722
5796 5797 5797 5798 5800 5801 5802 5802 5803 5803 5803 5803 5803 5803 5803 5802 5802 5801 5800 5799 5797 5795 5793 5791 5789 5786 5784 5781 5778 5775 5772 5769 5765 5762 5757 5753 5748 5744 5738 5733 5727 5721 5716 5709
5788 5789 5789 5790 5792 5792 5793 5794 5794 5794 5795 5795 5795 5795 5794 5794 5793 5792 5791 5790 5788 5786 5784 5782 5779 5777 5774 5771 5768 5765 5761 5758 5754 5751 5746 5742 5737 5731 5726 5721 5716 5709 5703 5697